SCP
0 0 0 0 0 0 0 0 0 0 0 0 0 0 0 0 0 0 0 0 0 0 0 0 0 0 0 0 0 0 0 0 0 0 0 0 0 0 0 0 0 0 0 0
0 0 0 0 0 0 0 0 0 0 0 0 0 0 0 0 0 0 0 0 0 0 0 0 0 0 0 0 0 0 0 0 0 0 0 0 0 0 0 0 0 0 0 0
0 0 0 0 0 0 0 0 0 0 0 0 0 0 0 0 0 0 0 0 0 0 0 0 0 0 0 0 0 0 0 0 0 0 0 0 0 0 0 0 0 0 0 0
0 0 0 0 0 0 0 0 0 0 0 0 0 0 0 0 0 0 0 0 0 0 0 0 0 0 0 0 0 0 0 0 0 0 0 0 0 0 0 0 0 0 0 0
0 0 0 0 0 0 0 0 0 0 0 0 0 0 0 0 0 0 0 0 0 0 0 0 0 0 0 0 0 0 0 0 0 0 0 0 0 0 0 0 0 0 0 0
0 0 0 0 0 0 0 0 0 0 0 0 0 0 0 0 0 0 0 0 0 0 0 0 0 0 0 0 0 0 0 0 0 0 0 0 0 0 0 0 0 0 0 0
0 0 0 0 0 0 0 0 0 0 0 0 0 0 0 0 0 0 0 0 0 0 0 0 -0 -0 -0 -0 -0 0 0 0 0 0 0 0 0 0 0 0 0 0 0 0
0 0 0 0 0 0 0 0 0 0 0 0 0 0 0 0 0 0 0 0 0 0 0 -0 -0 -0 -0 -0 -0 -0 -0 -0 -0 0 0 0 0 0 0 0 0 0 0 0
0 0 0 0 0 0 0 0 0 0 0 0 0 0 0 0 0 0 0 0 0 0 0 0 0 0 0 -0 -0 -0 -0 0 0 0 0 0 0 0 0 0 0 0 0 0
0 0 0 0 0 0 0 0 0 0 0 0 0 0 0 0 0 0 0 0 0 0 0 0 0 0 0 0 0 0 0 0 0 0 0 0 0 0 0 0 0 0 0 0
0 0 0 0 0 0 0 0 0 0 0 0 0 0 0 0 0 0 0 0 0 0 0 0 0 0 0 0 0 0 0 0 0 0 0 0 0 0 0 0 0 0 0 0
0 0 0 0 0 0 0 0 0 0 0 0 0 0 0 0 0 0 0 0 0 0 0 0 0 0 0 0 0 0 0 0 0 0 0 0 0 0 -0 -0 -0 -0 -0 -0
0 0 0 0 0 0 0 0 0 0 0 0 0 0 0 0 0 0 0 0 0 0 0 0 0 0 0 0 0 0 -0 -0 -0 -0 -0 -0 -0 -0 -0 -0 -0 -0 -0 -0
0 -0 0 0 0 0 0 0 0 0 0 0 0 0 0 0 0 0 0 0 0 0 0 0 0 0 0 0 0 0 0 0 0 0 -0 -0 -0 -0 -0 -0 -0 -0 -0 -0
0 0 0 0 0 0 0 0 0 0 0 0 0 0 0 0 0 0 0 0 0 0 0 0 0 0 0 0 0 0 0 0 0 0 0 0 0 -0 -0 -0 -0 -0 -0 -0
0 0 0 0 0 0 0 0 0 0 0 0 0 0 0 0 0 0 0 0 0 0 0 0 0 0 0 0 0 0 0 0 0 0 0 0 0 0 0 -0 -0 -0 -0 -0
0 0 0 0 0 0 0 0 0 0 0 0 0 0 0 0 0 0 0 0 0 0 0 0 0 0 0 0 0 0 0 0 0 0 0 0 0 -0 -0 -0 -0 -0 -0 -0
0 0 0 0 0 0 0 0 0 0 0 0 0 0 0 0 0 0 0 0 0 0 0 0 0 0 0 0 0 0 0 0 0 0 0 0 0 0 0 0 -0 -0 -0 -0
0 0 0 0 0 0 0 0 0 0 0 0 0 0 0 0 0 0 0 0 0 0 0 0 0 0 0 0 0 0 0 0 0 0 0 0 0 0 0 0 -0 -0 0 -0
0 0 0 0 0 0 0 0 0 0 0 0 0 0 0 0 0 0 0 0 0 0 0 0 0 0 0 0 0 0 0 0 0 0 0 0 0 0 0 0 0 -0 -0 -0
0 0 0 0 0 0 0 0 0 0 0 0 0 0 0 0 0 0 0 0 0 0 0 0 0 0 0 0 0 0 0 0 0 0 0 0 0 0 0 -0 0 -0 -0 -0
0 0 0 0 0 0 0 0 0 0 0 0 0 0 0 0 0 0 0 0 0 0 0 0 0 0 0 0 0 0 0 0 0 0 0 0 0 0 0 0 -0 -0 -0 -0
0 0 0 0 0 0 0 0 0 0 0 0 0 0 0 0 0 0 0 0 0 0 0 0 0 0 0 0 0 0 0 0 0 -0 0 0 0 0 0 -0 -0 -0 -0 -0
0 0 0 0 0 0 0 0 0 0 0 0 0 0 0 0 0 0 0 0 0 0 0 0 0 0 0 0 0 0 0 -0 -0 -0 -0 -0 -0 -0 -0 -0 -0 -0 -0 -0
0 0 0 0 0 0 0 0 0 0 0 0 0 0 0 0 0 0 0 0 0 0 0 0 0 0 0 0 0 -0 -0 -0 -0 -0 -0 -0 -0 -0 -0 -0 -0 -0 -0 0
0 0 0 0 0 0 0 0 0 0 0 0 0 0 0 0 0 0 0 0 0 0 0 0 0 0 0 0 -0 -0 -0 -0 -0 -0 -0 0 0 0 0 0 0 0 0 0
0 0 0 0 0 0 0 0 0 0 0 0 0 0 0 0 0 0 0 0 0 0 0 0 0 0 -0 -0 -0 -0 -0 -0 0 0 -0 -0 0 0 0 0 0 0 0 0
Wind_Speed_500mb
34 26 27 31 29 37 36 22 8 22 36 18 13 24 15 18 32 31 27 18 33 36 28 30 29 40 32 29 14 10 6 2 5 23 14 7 11 24 33 25 37 7 9 30
13 12 12 16 19 10 16 14 28 31 41 18 20 7 21 42 40 37 15 21 25 36 45 41 38 43 55 67 19 14 11 7 14 14 20 4 13 13 19 15 5 34 28 40
17 18 15 17 16 17 20 11 6 23 48 55 36 37 41 41 53 46 69 49 44 36 40 39 29 34 19 32 35 38 27 20 27 38 39 7 8 22 23 21 19 36 41 60
18 16 15 17 17 15 12 15 11 13 6 20 31 27 10 29 15 22 37 16 47 54 52 50 54 53 51 37 32 15 23 23 37 53 60 53 61 63 62 51 41 25 56 39
26 23 18 14 15 14 22 9 6 9 17 25 14 9 23 30 34 24 26 39 32 22 33 53 57 49 43 45 10 47 19 33 31 40 53 61 66 67 66 65 72 57 67 68
27 27 24 21 14 14 8 15 14 6 17 4 7 13 13 14 31 22 8 33 33 32 38 30 51 60 52 38 30 35 32 19 23 50 44 50 41 64 75 72 57 44 48 67
29 30 30 23 20 21 21 19 13 4 11 8 8 19 19 25 20 20 47 35 27 30 75 69 57 53 59 48 44 37 30 25 17 29 25 42 36 36 57 66 63 61 61 65
31 32 34 29 27 27 29 29 23 12 8 21 21 28 18 29 36 20 27 58 36 41 40 19 23 33 34 41 36 37 44 40 22 22 27 26 10 17 28 34 54 50 51 51
35 31 33 34 34 30 32 36 33 29 9 14 34 6 4 3 6 10 25 22 46 31 9 9 17 13 22 12 14 7 26 33 32 30 42 42 30 23 44 38 39 50 29 36
45 41 40 37 35 35 35 42 38 42 21 44 45 19 18 16 5 5 8 9 17 27 3 9 16 28 17 18 20 24 17 17 34 35 38 17 21 33 38 15 22 52 35 31
43 40 42 37 40 39 38 50 44 45 39 50 43 40 32 22 13 6 14 13 6 6 2 5 5 5 8 9 14 24 10 8 17 14 31 48 54 18 17 29 58 59 47 66
48 46 43 40 40 39 44 53 50 47 51 46 28 32 49 57 67 48 29 19 13 12 4 2 3 6 7 13 9 18 14 7 11 12 21 50 22 47 61 35 31 45 46 55
49 46 43 42 43 44 46 58 52 49 48 59 67 59 72 62 67 63 34 30 42 25 45 8 7 7 7 3 9 11 13 17 13 29 6 46 73 49 42 39 48 49 47 61
51 49 47 49 47 50 55 55 61 54 24 13 34 47 53 48 47 45 66 79 58 41 34 15 6 6 17 7 13 17 22 26 16 33 37 45 48 54 55 68 62 55 63 72
59 54 51 51 55 55 53 56 62 62 50 7 14 41 55 51 38 48 52 58 70 51 15 10 11 11 15 14 15 21 34 35 25 35 51 35 51 60 56 48 45 61 59 62
53 55 54 54 49 42 46 42 62 63 68 18 6 28 41 47 59 74 72 66 63 40 17 10 19 52 18 10 10 27 59 73 65 32 45 55 69 63 38 75 63 43 65 77
46 48 48 44 41 44 50 18 13 23 57 19 5 6 9 22 38 52 68 66 43 41 36 18 31 39 39 19 29 44 66 61 45 29 39 41 40 41 78 64 80 83 88 74
46 47 42 39 42 51 56 60 55 33 46 16 5 8 2 21 21 16 35 39 34 29 26 12 11 19 14 12 33 58 20 30 27 18 29 37 59 68 73 75 71 89 105 99
45 37 34 39 39 31 45 46 48 66 38 5 6 7 8 9 11 10 10 13 7 14 9 10 13 3 9 21 11 7 15 16 32 47 53 53 39 70 87 73 74 64 92 96
35 28 14 10 14 25 19 15 15 19 19 20 6 17 7 20 12 2 4 14 6 4 9 7 7 17 41 4 7 5 19 28 37 49 46 65 79 67 85 81 71 67 79 92
35 19 19 13 8 4 8 7 10 8 3 10 14 29 12 20 6 9 16 4 4 5 9 11 4 7 6 13 17 28 40 46 50 52 59 59 63 79 86 96 81 76 78 83
34 21 17 14 11 8 3 5 2 3 10 6 6 9 15 8 15 6 7 7 3 11 3 7 6 2 14 35 48 53 55 61 65 64 71 73 70 74 83 89 90 87 85 87
45 16 13 11 7 7 10 10 6 2 5 3 1 4 7 10 8 3 4 11 11 3 4 9 4 5 33 53 61 69 69 71 74 76 74 73 76 74 75 85 85 86 83 84
15 15 12 10 5 8 10 8 8 5 4 7 2 4 4 9 3 6 8 9 4 1 2 12 1 20 50 57 61 68 79 77 77 76 75 76 74 76 77 75 75 77 80 80
13 14 12 8 8 9 10 15 14 7 6 4 3 6 2 4 8 5 1 4 8 12 10 2 19 44 52 59 63 66 71 74 75 75 74 73 73 73 73 72 71 64 63 62
13 9 8 6 8 2 8 10 10 6 7 6 2 2 2 9 6 4 12 8 12 4 5 25 44 49 52 57 60 62 65 67 70 68 67 65 67 67 69 63 57 50 49 43
10 2 14 16 15 12 11 9 10 6 7 5 4 7 20 2 5 6 1 8 5 7 36 37 42 45 50 53 56 58 60 64 65 58 55 58 60 58 56 57 51 44 38 32
Wind_Direction_500mb
296 297 286 291 293 293 276 253 237 213 207 193 194 230 231 240 250 233 235 247 253 253 253 253 251 248 234 222 172 187 155 262 296 250 297 272 254 229 228 241 251 240 270 262
326 321 314 304 280 271 211 228 231 231 214 229 231 233 252 244 251 247 209 228 224 239 246 262 243 255 252 254 230 194 165 160 243 287 289 231 217 222 230 253 281 249 252 260
310 304 307 300 309 248 232 250 265 206 213 237 249 248 251 246 240 249 257 256 253 254 250 248 254 256 266 248 251 255 195 198 232 246 236 197 237 259 242 233 253 258 250 263
291 297 308 304 296 279 222 227 245 260 242 237 242 247 264 258 279 280 288 263 242 247 254 248 254 251 260 251 256 194 184 232 221 235 241 244 251 255 255 250 240 238 260 252
276 271 278 273 266 285 258 274 291 322 292 308 295 261 258 274 283 265 273 271 284 285 284 267 260 258 246 239 226 222 193 243 233 231 227 233 244 245 251 254 255 248 246 257
283 274 268 269 254 262 244 231 257 320 264 309 256 258 285 285 314 287 308 339 326 310 300 302 299 294 289 293 295 253 218 210 222 249 233 242 246 239 240 245 247 245 244 244
275 276 277 267 259 249 244 255 277 269 266 239 249 299 323 304 309 296 299 307 295 295 304 302 287 271 274 257 255 249 276 263 245 247 237 231 235 235 237 244 247 249 246 248
274 270 269 273 265 251 253 247 248 227 257 250 264 274 285 291 294 295 291 293 292 320 325 304 296 296 279 260 231 238 230 241 252 259 252 271 340 235 218 221 244 256 274 265
261 262 260 263 267 265 260 252 252 240 257 237 246 194 230 214 247 272 255 284 314 327 303 303 282 285 311 291 301 261 259 246 246 248 254 258 263 272 268 247 260 360 9 4
265 262 264 265 263 263 259 260 253 248 250 261 255 252 260 227 217 237 306 316 312 306 233 274 266 267 300 275 285 300 302 286 254 260 269 267 12 360 313 241 357 334 327 358
261 261 264 266 262 260 255 261 258 250 258 267 255 247 231 216 222 200 269 337 303 348 221 219 312 316 16 313 336 313 279 297 284 311 262 254 10 353 357 321 304 309 316 327
261 261 261 260 264 263 259 260 260 260 255 261 262 260 250 259 259 251 235 222 178 227 76 332 28 324 315 293 263 297 285 344 319 321 312 308 321 311 307 306 310 317 311 312
264 260 262 264 270 270 266 262 259 259 255 269 262 258 272 264 248 250 242 244 238 237 244 199 212 219 170 217 259 274 275 282 293 315 281 296 302 309 313 350 344 328 313 307
269 267 265 268 270 271 267 262 256 249 241 249 269 273 264 269 258 249 237 245 249 251 248 217 190 191 209 223 235 247 266 296 274 283 282 291 295 311 323 323 317 307 305 311
264 265 269 270 271 268 266 262 258 250 228 249 260 274 266 272 264 256 249 246 241 236 236 221 233 233 246 239 262 264 260 259 268 275 291 302 297 306 315 305 320 313 313 307
260 261 266 270 268 270 270 263 259 249 242 253 237 273 269 271 254 247 252 245 237 226 207 226 235 241 240 249 236 250 255 255 264 286 292 292 297 305 293 317 319 311 305 309
264 266 267 264 269 264 250 246 278 222 220 228 238 261 288 239 238 241 238 244 228 227 240 230 242 252 252 259 264 263 267 280 283 300 309 301 301 304 312 316 313 315 312 308
265 268 263 265 267 266 261 248 234 212 193 204 219 259 247 235 209 213 231 231 230 226 234 229 221 258 226 249 253 271 289 298 305 307 314 294 299 304 308 312 316 315 312 312
265 259 262 270 268 253 256 263 250 236 222 216 185 166 238 197 227 208 190 199 229 219 207 222 199 253 226 243 292 20 352 343 312 312 310 313 300 307 309 310 310 306 303 305
252 246 241 232 220 233 239 192 210 216 212 213 202 177 216 186 185 205 261 213 206 205 241 179 179 239 246 67 67 359 340 330 326 325 323 318 312 308 307 306 303 298 296 299
216 182 197 206 204 232 227 214 180 172 252 211 228 214 222 226 156 211 207 208 220 222 252 158 260 267 77 23 351 334 329 326 323 314 304 297 292 296 299 301 300 297 296 295
183 177 168 160 191 209 213 188 70 121 220 237 167 208 202 211 213 136 179 196 83 238 154 104 238 66 24 346 336 331 330 327 323 321 315 313 306 304 300 297 298 300 300 301
156 167 150 152 216 187 189 212 266 304 227 240 294 269 221 206 221 218 146 213 225 65 92 214 215 29 339 338 335 329 329 329 326 324 321 318 314 312 304 300 301 301 299 299
135 147 154 172 267 232 195 182 183 132 164 102 84 260 250 221 203 220 247 239 69 282 356 236 161 325 329 332 333 330 329 330 328 326 323 319 318 312 311 307 305 304 303 306
135 143 184 193 174 100 116 120 131 100 110 150 191 282 255 280 250 215 279 311 239 203 229 242 305 321 328 328 331 329 329 330 326 327 323 319 319 318 314 314 316 316 315 313
133 127 119 112 102 335 143 133 135 138 175 169 133 70 19 248 202 237 225 141 219 236 227 305 321 325 328 329 330 331 330 329 327 325 323 328 331 321 320 327 332 334 331 325
107 120 109 113 94 127 139 132 155 149 163 179 154 175 219 326 231 247 349 208 211 274 311 320 325 327 331 333 333 334 334 333 330 330 336 338 331 334 340 341 350 354 356 360
Wind_Speed_850mb
34 26 27 31 29 37 36 22 8 22 36 18 13 24 15 18 32 31 27 18 33 36 28 30 29 40 32 29 14 10 6 2 5 23 14 7 11 24 33 25 37 7 9 30
13 12 12 16 19 10 16 14 28 31 41 18 20 7 21 42 40 37 15 21 25 36 45 41 38 43 55 67 19 14 11 7 14 14 20 4 13 13 19 15 5 34 28 40
17 18 15 17 16 17 20 11 6 23 48 55 36 37 41 41 53 46 69 49 44 36 40 39 29 34 19 32 35 38 27 20 27 38 39 7 8 22 23 21 19 36 41 60
18 16 15 17 17 15 12 15 11 13 6 20 31 27 10 29 15 22 37 16 47 54 52 50 54 53 51 37 32 15 23 23 37 53 60 53 61 63 62 51 41 25 56 39
26 23 18 14 15 14 22 9 6 9 17 25 14 9 23 30 34 24 26 39 32 22 33 53 57 49 43 45 10 47 19 33 31 40 53 61 66 67 66 65 72 57 67 68
27 27 24 21 14 14 8 15 14 6 17 4 7 13 13 14 31 22 8 33 33 32 38 30 51 60 52 38 30 35 32 19 23 50 44 50 41 64 75 72 57 44 48 67
29 30 30 23 20 21 21 19 13 4 11 8 8 19 19 25 20 20 47 35 27 30 75 69 57 53 59 48 44 37 30 25 17 29 25 42 36 36 57 66 63 61 61 65
31 32 34 29 27 27 29 29 23 12 8 21 21 28 18 29 36 20 27 58 36 41 40 19 23 33 34 41 36 37 44 40 22 22 27 26 10 17 28 34 54 50 51 51
35 31 33 34 34 30 32 36 33 29 9 14 34 6 4 3 6 10 25 22 46 31 9 9 17 13 22 12 14 7 26 33 32 30 42 42 30 23 44 38 39 50 29 36
45 41 40 37 35 35 35 42 38 42 21 44 45 19 18 16 5 5 8 9 17 27 3 9 16 28 17 18 20 24 17 17 34 35 38 17 21 33 38 15 22 52 35 31
43 40 42 37 40 39 38 50 44 45 39 50 43 40 32 22 13 6 14 13 6 6 2 5 5 5 8 9 14 24 10 8 17 14 31 48 54 18 17 29 58 59 47 66
48 46 43 40 40 39 44 53 50 47 51 46 28 32 49 57 67 48 29 19 13 12 4 2 3 6 7 13 9 18 14 7 11 12 21 50 22 47 61 35 31 45 46 55
49 46 43 42 43 44 46 58 52 49 48 59 67 59 72 62 67 63 34 30 42 25 45 8 7 7 7 3 9 11 13 17 13 29 6 46 73 49 42 39 48 49 47 61
51 49 47 49 47 50 55 55 61 54 24 13 34 47 53 48 47 45 66 79 58 41 34 15 6 6 17 7 13 17 22 26 16 33 37 45 48 54 55 68 62 55 63 72
59 54 51 51 55 55 53 56 62 62 50 7 14 41 55 51 38 48 52 58 70 51 15 10 11 11 15 14 15 21 34 35 25 35 51 35 51 60 56 48 45 61 59 62
53 55 54 54 49 42 46 42 62 63 68 18 6 28 41 47 59 74 72 66 63 40 17 10 19 52 18 10 10 27 59 73 65 32 45 55 69 63 38 75 63 43 65 77
46 48 48 44 41 44 50 18 13 23 57 19 5 6 9 22 38 52 68 66 43 41 36 18 31 39 39 19 29 44 66 61 45 29 39 41 40 41 78 64 80 83 88 74
46 47 42 39 42 51 56 60 55 33 46 16 5 8 2 21 21 16 35 39 34 29 26 12 11 19 14 12 33 58 20 30 27 18 29 37 59 68 73 75 71 89 105 99
45 37 34 39 39 31 45 46 48 66 38 5 6 7 8 9 11 10 10 13 7 14 9 10 13 3 9 21 11 7 15 16 32 47 53 53 39 70 87 73 74 64 92 96
35 28 14 10 14 25 19 15 15 19 19 20 6 17 7 20 12 2 4 14 6 4 9 7 7 17 41 4 7 5 19 28 37 49 46 65 79 67 85 81 71 67 79 92
35 19 19 13 8 4 8 7 10 8 3 10 14 29 12 20 6 9 16 4 4 5 9 11 4 7 6 13 17 28 40 46 50 52 59 59 63 79 86 96 81 76 78 83
34 21 17 14 11 8 3 5 2 3 10 6 6 9 15 8 15 6 7 7 3 11 3 7 6 2 14 35 48 53 55 61 65 64 71 73 70 74 83 89 90 87 85 87
45 16 13 11 7 7 10 10 6 2 5 3 1 4 7 10 8 3 4 11 11 3 4 9 4 5 33 53 61 69 69 71 74 76 74 73 76 74 75 85 85 86 83 84
15 15 12 10 5 8 10 8 8 5 4 7 2 4 4 9 3 6 8 9 4 1 2 12 1 20 50 57 61 68 79 77 77 76 75 76 74 76 77 75 75 77 80 80
13 14 12 8 8 9 10 15 14 7 6 4 3 6 2 4 8 5 1 4 8 12 10 2 19 44 52 59 63 66 71 74 75 75 74 73 73 73 73 72 71 64 63 62
13 9 8 6 8 2 8 10 10 6 7 6 2 2 2 9 6 4 12 8 12 4 5 25 44 49 52 57 60 62 65 67 70 68 67 65 67 67 69 63 57 50 49 43
10 2 14 16 15 12 11 9 10 6 7 5 4 7 20 2 5 6 1 8 5 7 36 37 42 45 50 53 56 58 60 64 65 58 55 58 60 58 56 57 51 44 38 32
Wind_Direction_850mb
296 297 286 291 293 293 276 253 237 213 207 193 194 230 231 240 250 233 235 247 253 253 253 253 251 248 234 222 172 187 155 262 296 250 297 272 254 229 228 241 251 240 270 262
326 321 314 304 280 271 211 228 231 231 214 229 231 233 252 244 251 247 209 228 224 239 246 262 243 255 252 254 230 194 165 160 243 287 289 231 217 222 230 253 281 249 252 260
310 304 307 300 309 248 232 250 265 206 213 237 249 248 251 246 240 249 257 256 253 254 250 248 254 256 266 248 251 255 195 198 232 246 236 197 237 259 242 233 253 258 250 263
291 297 308 304 296 279 222 227 245 260 242 237 242 247 264 258 279 280 288 263 242 247 254 248 254 251 260 251 256 194 184 232 221 235 241 244 251 255 255 250 240 238 260 252
276 271 278 273 266 285 258 274 291 322 292 308 295 261 258 274 283 265 273 271 284 285 284 267 260 258 246 239 226 222 193 243 233 231 227 233 244 245 251 254 255 248 246 257
283 274 268 269 254 262 244 231 257 320 264 309 256 258 285 285 314 287 308 339 326 310 300 302 299 294 289 293 295 253 218 210 222 249 233 242 246 239 240 245 247 245 244 244
275 276 277 267 259 249 244 255 277 269 266 239 249 299 323 304 309 296 299 307 295 295 304 302 287 271 274 257 255 249 276 263 245 247 237 231 235 235 237 244 247 249 246 248
274 270 269 273 265 251 253 247 248 227 257 250 264 274 285 291 294 295 291 293 292 320 325 304 296 296 279 260 231 238 230 241 252 259 252 271 340 235 218 221 244 256 274 265
261 262 260 263 267 265 260 252 252 240 257 237 246 194 230 214 247 272 255 284 314 327 303 303 282 285 311 291 301 261 259 246 246 248 254 258 263 272 268 247 260 360 9 4
265 262 264 265 263 263 259 260 253 248 250 261 255 252 260 227 217 237 306 316 312 306 233 274 266 267 300 275 285 300 302 286 254 260 269 267 12 360 313 241 357 334 327 358
261 261 264 266 262 260 255 261 258 250 258 267 255 247 231 216 222 200 269 337 303 348 221 219 312 316 16 313 336 313 279 297 284 311 262 254 10 353 357 321 304 309 316 327
261 261 261 260 264 263 259 260 260 260 255 261 262 260 250 259 259 251 235 222 178 227 76 332 28 324 315 293 263 297 285 344 319 321 312 308 321 311 307 306 310 317 311 312
264 260 262 264 270 270 266 262 259 259 255 269 262 258 272 264 248 250 242 244 238 237 244 199 212 219 170 217 259 274 275 282 293 315 281 296 302 309 313 350 344 328 313 307
269 267 265 268 270 271 267 262 256 249 241 249 269 273 264 269 258 249 237 245 249 251 248 217 190 191 209 223 235 247 266 296 274 283 282 291 295 311 323 323 317 307 305 311
264 265 269 270 271 268 266 262 258 250 228 249 260 274 266 272 264 256 249 246 241 236 236 221 233 233 246 239 262 264 260 259 268 275 291 302 297 306 315 305 320 313 313 307
260 261 266 270 268 270 270 263 259 249 242 253 237 273 269 271 254 247 252 245 237 226 207 226 235 241 240 249 236 250 255 255 264 286 292 292 297 305 293 317 319 311 305 309
264 266 267 264 269 264 250 246 278 222 220 228 238 261 288 239 238 241 238 244 228 227 240 230 242 252 252 259 264 263 267 280 283 300 309 301 301 304 312 316 313 315 312 308
265 268 263 265 267 266 261 248 234 212 193 204 219 259 247 235 209 213 231 231 230 226 234 229 221 258 226 249 253 271 289 298 305 307 314 294 299 304 308 312 316 315 312 312
265 259 262 270 268 253 256 263 250 236 222 216 185 166 238 197 227 208 190 199 229 219 207 222 199 253 226 243 292 20 352 343 312 312 310 313 300 307 309 310 310 306 303 305
252 246 241 232 220 233 239 192 210 216 212 213 202 177 216 186 185 205 261 213 206 205 241 179 179 239 246 67 67 359 340 330 326 325 323 318 312 308 307 306 303 298 296 299
216 182 197 206 204 232 227 214 180 172 252 211 228 214 222 226 156 211 207 208 220 222 252 158 260 267 77 23 351 334 329 326 323 314 304 297 292 296 299 301 300 297 296 295
183 177 168 160 191 209 213 188 70 121 220 237 167 208 202 211 213 136 179 196 83 238 154 104 238 66 24 346 336 331 330 327 323 321 315 313 306 304 300 297 298 300 300 301
156 167 150 152 216 187 189 212 266 304 227 240 294 269 221 206 221 218 146 213 225 65 92 214 215 29 339 338 335 329 329 329 326 324 321 318 314 312 304 300 301 301 299 299
135 147 154 172 267 232 195 182 183 132 164 102 84 260 250 221 203 220 247 239 69 282 356 236 161 325 329 332 333 330 329 330 328 326 323 319 318 312 311 307 305 304 303 306
135 143 184 193 174 100 116 120 131 100 110 150 191 282 255 280 250 215 279 311 239 203 229 242 305 321 328 328 331 329 329 330 326 327 323 319 319 318 314 314 316 316 315 313
133 127 119 112 102 335 143 133 135 138 175 169 133 70 19 248 202 237 225 141 219 236 227 305 321 325 328 329 330 331 330 329 327 325 323 328 331 321 320 327 332 334 331 325
107 120 109 113 94 127 139 132 155 149 163 179 154 175 219 326 231 247 349 208 211 274 311 320 325 327 331 333 333 334 334 333 330 330 336 338 331 334 340 341 350 354 356 360